This is the latest recevied weather packets stored in our database for station/object IW7DVM-13. If no packets are shown the sender has not sent any weather packets the latest 10 day(s).
| Time | Temp. | Humidity | Pressure | Rain* | Wind** | Luminosity | Snow |
|---|---|---|---|---|---|---|---|
| 1787588403 | 32.22° C | 58% | 1009.1 hPa | 0 mm | - | - | - |
| 1787588103 | 32.22° C | 57% | 1009.2 hPa | 0 mm | - | - | - |
| 1787587803 | 32.22° C | 56% | 1009 hPa | 0 mm | - | - | - |
| 1787587503 | 32.22° C | 56% | 1009 hPa | 0 mm | - | - | - |
| 1787587203 | 32.22° C | 59% | 1009 hPa | 0 mm | - | - | - |
| 1787586903 | 31.67° C | 59% | 1009.1 hPa | 0 mm | - | - | - |
| 1787586603 | 31.67° C | 59% | 1009.2 hPa | 0 mm | - | - | - |
| 1787586303 | 32.22° C | 59% | 1009.3 hPa | 0 mm | - | - | - |
| 1787586003 | 32.22° C | 58% | 1009.2 hPa | 0 mm | - | - | - |
| 1787585703 | 31.67° C | 58% | 1009.2 hPa | 0 mm | - | - | - |
| 1787585403 | 31.67° C | 58% | 1009.2 hPa | 0 mm | - | - | - |
| 1787585103 | 31.67° C | 57% | 1009.3 hPa | 0 mm | - | - | - |
| 1787584803 | 32.22° C | 55% | 1009.3 hPa | 0 mm | - | - | - |
| 1787584503 | 32.78° C | 54% | 1009.4 hPa | 0 mm | - | - | - |
| 1787584203 | 32.22° C | 52% | 1009.4 hPa | 0 mm | - | - | - |
| 1787583903 | 32.78° C | 51% | 1009.3 hPa | 0 mm | - | - | - |
| 1787583603 | 33.33° C | 51% | 1009.3 hPa | 0 mm | - | - | - |
| 1787583303 | 33.89° C | 50% | 1009.4 hPa | 0 mm | - | - | - |
| 1787583003 | 33.89° C | 49% | 1009.4 hPa | 0 mm | - | - | - |
| 1787582703 | 33.33° C | 48% | 1009.2 hPa | 0 mm | - | - | - |
| 1787582403 | 33.33° C | 47% | 1009.3 hPa | 0 mm | - | - | - |
| 1787582103 | 33.33° C | 50% | 1009.3 hPa | 0 mm | - | - | - |
| 1787581803 | 33.33° C | 47% | 1009.3 hPa | 0 mm | - | - | - |
| 1787581503 | 33.33° C | 48% | 1009.4 hPa | 0 mm | - | - | - |
| 1787581203 | 33.89° C | 47% | 1009.3 hPa | 0 mm | - | - | - |
* Rain latest hour (hover to see other rain measurements)
** Current wind speed in m/s (hover to see current wind gust speed)